Simultaneous Nadir Overpasses (SNOs) Predictions

Prediction of SNOs between NOAA-19 and NPP Satellite Orbit:

Table of predicted SNOs for the next 14.0 days since TLE Epoch: 4/3/2015
Index Date (NOAA-19) Time (NOAA-19) Lat,Lon (NOAA-19) SZA (NOAA-19 ) Date (NPP) Time (NPP) Lat,Lon (NPP) SZA (NPP ) Distance(km) Time Diff (sec)
1 04/09/2015 13:14:23 -81.00, 109.82 103.08 04/09/2015 13:15:28 -81.01, 109.70 103.10 2.13 65
2 04/09/2015 14:05:18 81.00, -82.59 76.87 04/09/2015 14:06:12 81.00, -82.67 76.85 1.36 54
3 04/09/2015 14:56:25 -81.00, 84.61 103.15 04/09/2015 14:56:57 -81.00, 84.62 103.17 0.12 32
4 04/09/2015 15:47:21 81.00,-108.18 76.85 04/09/2015 15:47:42 81.00,-108.12 76.84 0.94 21
5 04/09/2015 16:38:27 -80.99, 59.40 103.22 04/09/2015 16:38:26 -80.99, 59.53 103.24 2.36 1
6 04/09/2015 17:29:23 80.99,-133.39 76.78 04/09/2015 17:29:11 80.99,-133.21 76.77 3.11 12
7 04/09/2015 18:20:29 -80.99, 34.19 103.28 04/09/2015 18:19:56 -80.99, 34.08 103.25 2.02 33
8 04/09/2015 19:11:25 80.99,-158.59 76.72 04/09/2015 19:10:41 80.99,-158.66 76.75 1.27 44




NCC Satellite Simultaneous Nadir Overpasses (SNOs) Prediction Service
